Regional Weather Roundup
Issued by NWS

Home | Current Version | Previous Version | Text Only | Print | Product List | Glossary Off
Versions: 1 2 3 4 5 6 7 8 9 10 11 12 13 14 15 16 17 18 19 20 21 22 23 24 25 26 27 28 29 30 31 32 33 34 35 36 37 38 39 40 41 42 43 44 45 46 47 48 49 50

000
ASUS43 KMPX 301201
RWRMN
WEATHER ROUNDUP FOR MINNESOTA
NATIONAL WEATHER SERVICE TWIN CITIES/CHANHASSEN MN
700 AM CDT SAT MAY 30 2015


NOTE: "FAIR" INDICATES FEW OR NO CLOUDS BELOW 12,000 FEET WITH NO
SIGNIFICANT WEATHER AND/OR OBSTRUCTIONS TO VISIBILITY. N/A MEANS
CURRENT SKY AND/OR WEATHER CONDITIONS ARE NOT AVAILABLE.

MNZ060>063-068>070-301300-
   Twin Cities Metro

CITY           SKY/WX    TMP DP  RH WIND       PRES   REMARKS
TWIN CITIES    PTSUNNY   47  39  74 N13G22    30.18R
6HR MIN TEMP:  47; 6HR MAX TEMP:  54;

ST PAUL        PTSUNNY   48  39  71 N15G21    30.19R
CRYSTAL        MOSUNNY   48  38  68 N12G17    30.18R
BLAINE         MOSUNNY   48  43  81 N14       30.19R
LAKEVILLE      PTSUNNY   46  39  76 N12G18    30.17R
EDEN PRAIRIE   MOSUNNY   47  39  74 N10       30.17R
6HR MIN TEMP:  46; 6HR MAX TEMP:  54;

SOUTH ST PAUL  PTSUNNY   49  39  69 N9G20     30.17R
LAKE ELMO      FAIR      46  39  76 N9G18     30.18R
$$
MNZ001>005-007-008-013>017-022>024-027-028-301300-
   Northwest Minnesota

CITY           SKY/WX    TMP DP  RH WIND       PRES   REMARKS
BEMIDJI        SUNNY     36  31  82 N8        30.31R
HALLOCK        SUNNY     34  27  75 N7        30.41R WCI  28
ROSEAU         SUNNY     32  27  80 N5        30.38R WCI  27
WARROAD        CLOUDY    34  28  80 N8        30.38R WCI  27
THIEF RVR FALL SUNNY     34  27  75 N12       30.38R WCI  25
CROOKSTON      SUNNY     34  28  80 N7        30.39S WCI  28
FOSSTON        SUNNY     34  28  80 N9        30.35R WCI  26
DETROIT LAKES  SUNNY     36  32  87 N7        30.32R
MOORHEAD       SUNNY     36  30  80 N12       30.36S
PARK RAPIDS    PTSUNNY   39  33  79 N10       30.29R
MAHNOMEN       FAIR      33  30  88 N12       30.33R WCI  24
$$
MNZ006-009>011-018-025>026-301300-
   North Central Minnesota

CITY           SKY/WX    TMP DP  RH WIND       PRES   REMARKS
BAUDETTE       CLOUDY    37  27  67 NE12      30.35R
FLAG ISLAND    CLOUDY    36  27  69 N17       30.37R
INTL FALLS     CLOUDY    36  26  67 N12       30.33R
6HR MIN TEMP:  35; 6HR MAX TEMP:  42;

WASKISH        CLOUDY    36  28  75 N8        30.34R
BIG FORK       SUNNY     36  28  75 N6        30.31R
LONGVILLE      SUNNY     39  34  81 N9        30.28R
GRAND RAPIDS   MOSUNNY   37  28  70 N15       30.27R
CRANE LAKE     LGT SNOW  34  30  86 N9        30.33R WCI  26
COOK           DRIZZLE   36  34  93 N7        30.28R
WALKER         CLOUDY    38  32  79 NE5       30.29R
$$
MNZ012-019>021-037-301300-
   Northeast Minnesota

CITY           SKY/WX    TMP DP  RH WIND       PRES   REMARKS
DULUTH         MOSUNNY   43  35  73 N15G21    30.20R
6HR MIN TEMP:  42; 6HR MAX TEMP:  48;

HIBBING        PTSUNNY   39  34  82 N9        30.25R
EVELETH        PTSUNNY   39  34  81 N9        30.25R
DULUTH HARBOR  SUNNY     46  39  76 N17       30.22R
TWO HARBORS    SUNNY     46  37  71 N8G17     30.18R
SILVER BAY     SUNNY     46  36  66 N6G17     30.19R
GRAND MARAIS     N/A     45  31  58 N17G33    30.17R
G MARAIS ARPRT PTSUNNY   37  28  70 N14       30.19R
$$
MNZ029>031-032-039>041-046>048-054>057-064-301300-
   West Central Minnesota

CITY           SKY/WX    TMP DP  RH WIND       PRES   REMARKS
FERGUS FALLS   SUNNY     37  32  81 N10       30.32S
WHEATON        SUNNY     36  30  80 NW12      30.35R
MORRIS         SUNNY     41  37  87 N9        30.28R
ALEXANDRIA     SUNNY     41  35  79 N9        30.28R
ELBOW LAKE     FAIR      39  36  89 N8        30.29S
WADENA         SUNNY     37  34  87 N12       30.28R
GLENWOOD       SUNNY     39  36  87 N13       30.27R
APPLETON       SUNNY     43  37  81 N14       30.28R
BENSON         SUNNY     45  37  76 N7        30.28R
ORTONVILLE     SUNNY     39  34  81 N15       30.30R
MADISON        SUNNY     41  36  81 N16       30.29R
WILLMAR        FAIR      45  39  81 N13G18    30.26R
$$
MNZ033>034-036-042>043-049>051-058-059-301300-
   Central Minnesota

CITY           SKY/WX    TMP DP  RH WIND       PRES   REMARKS
ST CLOUD       SUNNY     44  36  73 N10       30.23R
6HR MIN TEMP:  42; 6HR MAX TEMP:  49;

SAUK CENTRE    FAIR      41  37  83 N12       30.26R
PAYNESVILLE    SUNNY     40  37  90 NW8       30.25R
AITKIN         SUNNY     43  34  70 N9        30.24R
PINE RIVER     CLOUDY    43  36  75 N10       30.29R
BRAINERD       SUNNY     42  34  73 N13G22    30.26R
STAPLES        MOSUNNY   37  36  93 N10       30.27R
LONG PRAIRIE   FAIR      39  36  87 NW10      30.27R
LITTLE FALLS   SUNNY     43  34  70 N6        30.25R
LITCHFIELD     SUNNY     46  39  76 N14G20    30.23R
BUFFALO        SUNNY     46  38  73 N10G16    30.22R
MAPLE LAKE     SUNNY     46  40  78 N10G18    30.22R
$$
MNZ037-044-045-052-053-301300-
   East Central Minnesota

CITY           SKY/WX    TMP DP  RH WIND       PRES   REMARKS
PRINCETON      SUNNY     46  37  71 N12       30.22R
MORA           SUNNY     43  36  75 N8        30.23R
CAMBRIDGE      SUNNY     46  36  66 N10       30.19R
RUSH CITY      SUNNY     44  37  77 N10G17    30.21R
MOOSE LAKE     SUNNY     41  34  75 N12       30.21R
HINCKLEY       FAIR      43  37  81 N12G17    30.21R
CLOQUET        SUNNY     41  34  75 N10G20    30.22R
MCGREGOR       MOSUNNY   41  36  81 N15       30.24S
$$
MNZ071>073-080-081-089-090-097-098-301300-
   Southwest Minnesota

CITY           SKY/WX    TMP DP  RH WIND       PRES   REMARKS
MONTEVIDEO     SUNNY     43  39  87 N13       30.27R
GRANITE FALLS  SUNNY     43  39  85 NW9       30.27R
CANBY          SUNNY     40  36  84 NW13      30.29R
MARSHALL       SUNNY     43  34  70 N15       30.25R
REDWOOD FALLS  SUNNY     46  42  86 N9        30.23R
OLIVIA         SUNNY     43  37  81 N10       30.23R
PIPESTONE      MOSUNNY   41  37  87 N12       30.23R
WINDOM         MOSUNNY   45  43  93 N16       30.20R
WORTHINGTON    PTSUNNY   45  37  76 N17       30.19S
JACKSON        PTSUNNY   46  43  87 VRB16G22  30.18R
TRACY          MOSUNNY   43  41  93 N13       30.24R
SLAYTON        MOSUNNY   41  40  95 N15G23    30.22S
$$
MNZ065>067-074>077-082>085-091>093-301300-
   South Central Minnesota

CITY           SKY/WX    TMP DP  RH WIND       PRES   REMARKS
MANKATO        PTSUNNY   46  39  76 N16       30.17R
NEW ULM        MOSUNNY   46  39  76 N8        30.20R
ST JAMES       PTSUNNY   48  43  81 N13       30.20R
FAIRMONT       CLOUDY    48  39  71 N17G25    30.16R
GLENCOE        MOSUNNY   47  41  81 N9G16     30.20R
FARIBAULT      CLOUDY    48  43  81 N14G20    30.16R
OWATONNA       CLOUDY    50  43  76 N14G20    30.14R
WASECA         CLOUDY    50  43  76 N15G22    30.16R
ALBERT LEA     CLOUDY    52  46  82 N15       30.11R
$$
MNZ078>079-086>088-094>096-301300-
   Southeast Minnesota

CITY           SKY/WX    TMP DP  RH WIND       PRES   REMARKS
ROCHESTER      CLOUDY    50  47  89 N17       30.10R
6HR MIN TEMP:  50; 6HR MAX TEMP:  56; 6HR PCP:  0.02;

RED WING       CLOUDY    52  43  71 N6        30.13R
STANTON        CLOUDY    49  42  75 N13       30.14R
DODGE CENTER   PTSUNNY   50  46  87 N16       30.11R
WINONA         CLOUDY    54  50  87 N7        30.09R
AUSTIN         CLOUDY    48  46  93 N12G20    30.09R
PRESTON        CLOUDY    50  47  92 N17G25    30.07R
$$
ABBREVIATIONS USED IN REMARKS
   TC - TEMPERATURES IN CELSIUS
  WCI - WIND CHILL INDEX
   HX - HEAT INDEX
  VSB - VISIBILITY
$$


USA.gov is the U.S. government's official web portal to all federal, state and local government web resources and services.